Fort Smith, AR

12:30 PM CDT on September 19, 2017 (GMT -0500)
Fort Smith Regional

Weather History for KFSM - October, 2012

Change the Weather History Date:

Monday, October 22, 2012

  Actual Average Record
Temperature  
Mean Temperature 75 °F 61 °F  
Max Temperature 83 °F 73 °F 90 °F (1939)
Min Temperature 66 °F 49 °F 32 °F (1952)
Degree Days  
Heating Degree Days 0 5  
Month to date heating degree days 73 75  
Since 1 July heating degree days 73 92  
Cooling Degree Days 10 1  
Month to date cooling degree days 55 58  
Year to date cooling degree days 2847 2036  
Growing Degree Days 24 (Base 50)    
Moisture  
Dew Point 64 °F    
Average Humidity 71    
Maximum Humidity 87    
Minimum Humidity 55    
Precipitation  
Precipitation T in 0.16 in 2.56 in (1931)
Month to date precipitation 2.61 3.04  
Year to date precipitation 30.86 36.45  
Sea Level Pressure  
Sea Level Pressure 29.93 in    
Wind  
Wind Speed 7 mph (South)    
Max Wind Speed 23 mph    
Max Gust Speed 30 mph    
Visibility 10 miles    
Events Rain    
T = Trace of Precipitation, MM = Missing Value Source: NWS Daily Summary

Daily Weather History Graph

Daily Weather History Graph

Search for Another Location

Airport or City:

Trip Planner

Search our weather history database for the weather conditions in past years. The results will help you decide how hot, cold, wet, or windy it might be!

Date:

Astronomy

Oct. 22, 2012 Rise Set
Actual Time 7:30 AM CDT 6:32 PM CDT
Civil Twilight 7:04 AM CDT 6:58 PM CDT
Nautical Twilight 6:34 AM CDT 7:28 PM CDT
Astronomical Twilight 6:05 AM CDT 7:57 PM CDT
Moon 2:28 PM CDT (10/22) 12:32 AM CDT (10/22)
Length of Visible Light 11h 54m
Length of Day
11h 02m
First Quarter, 56% of the Moon is Illuminated
Oct 22
First Quarter
Oct 29
Full
Nov 6
Last Quarter
Nov 13
New
Nov 20
First Quarter

Hourly Weather History & Observations

Time (CDT) Temp. Heat Index Dew Point Humidity Pressure Visibility Wind Dir Wind Speed Gust Speed Precip Events Conditions
12:53 AM 73.9 °F - 66.0 °F 76% 29.90 in 10.0 mi Calm Calm - N/A   Overcast
1:53 AM 75.0 °F - 66.0 °F 73% 29.89 in 10.0 mi SE 5.8 mph - N/A   Overcast
2:53 AM 72.0 °F - 64.9 °F 78% 29.90 in 10.0 mi ENE 3.5 mph - N/A   Clear
3:53 AM 71.1 °F - 64.0 °F 78% 29.90 in 10.0 mi Calm Calm - N/A   Clear
4:53 AM 66.9 °F - 63.0 °F 87% 29.91 in 10.0 mi Calm Calm - N/A   Clear
5:53 AM 66.9 °F - 63.0 °F 87% 29.92 in 10.0 mi Calm Calm - N/A   Clear
6:53 AM 73.4 °F - 62.6 °F 69% 29.96 in 10.0 mi SSW 6.9 mph - N/A   Clear
7:11 AM 73.4 °F - 62.6 °F 69% 29.96 in 10.0 mi SW 6.9 mph - N/A   Mostly Cloudy
7:36 AM 71.6 °F - 62.6 °F 73% 29.96 in 10.0 mi South 6.9 mph - N/A   Scattered Clouds
7:53 AM 72.0 °F - 63.0 °F 73% 29.95 in 10.0 mi South 4.6 mph - N/A   Clear
9:53 AM 78.1 °F - 64.0 °F 62% 29.96 in 10.0 mi South 10.4 mph 17.3 mph N/A   Mostly Cloudy
10:00 AM 78.8 °F - 64.4 °F 61% 29.98 in 10.0 mi South 9.2 mph - N/A   Mostly Cloudy
10:53 AM 79.0 °F - 64.0 °F 60% 29.97 in 10.0 mi SSW 15.0 mph 21.9 mph N/A   Mostly Cloudy
11:30 AM 78.8 °F - 64.4 °F 61% 29.98 in 10.0 mi South 9.2 mph - N/A   Overcast
11:53 AM 78.8 °F - 64.4 °F 61% 29.97 in 10.0 mi SSW 13.8 mph 24.2 mph N/A   Overcast
12:53 PM 80.1 °F 81.7 °F 64.0 °F 58% 29.96 in 10.0 mi SW 18.4 mph 29.9 mph N/A   Overcast
1:53 PM 82.0 °F 83.4 °F 64.0 °F 54% 29.94 in 10.0 mi SSW 18.4 mph 26.5 mph N/A   Overcast
2:53 PM 81.0 °F 82.5 °F 64.0 °F 56% 29.93 in 10.0 mi SW 10.4 mph - N/A   Overcast
3:53 PM 80.1 °F 81.9 °F 64.9 °F 60% 29.92 in 10.0 mi South 10.4 mph - 0.00 in Rain Light Rain
4:53 PM 80.1 °F 82.1 °F 66.0 °F 62% 29.91 in 10.0 mi South 6.9 mph - 0.00 in   Mostly Cloudy
5:53 PM 79.0 °F - 64.9 °F 62% 29.93 in 10.0 mi South 9.2 mph - N/A   Overcast
6:53 PM 77.0 °F - 66.0 °F 69% 29.92 in 10.0 mi SSE 5.8 mph - N/A   Mostly Cloudy
7:53 PM 75.2 °F - 66.2 °F 73% 29.91 in 10.0 mi SE 5.8 mph - N/A   Clear
8:53 PM 75.0 °F - 66.0 °F 73% 29.91 in 10.0 mi SSE 11.5 mph 18.4 mph N/A   Clear
9:53 PM 73.9 °F - 64.9 °F 73% 29.92 in 10.0 mi SSE 4.6 mph - N/A   Clear
10:53 PM 73.9 °F - 64.9 °F 73% 29.95 in 10.0 mi ESE 3.5 mph - N/A   Scattered Clouds